KUIPER-00524

导读 | 豆包AI

KUIPER-00524(NORAD编号68892)是亚马逊“柯伊伯计划”卫星互联网星座的组成卫星,属于近地轨道通信卫星,旨在为全球提供宽带互联网接入服务,与SpaceX星链展开竞争。该卫星随柯伊伯计划批次发射入轨,项目计划总计部署超过3200颗卫星,目标2026年完成半数卫星部署。卫星通过星间激光链路实现高速互连,配合地面终端可提供最高百兆至四百兆的接入速率,依托亚马逊云计算基础设施,构建覆盖全球的天基互联网系统。

Basic Information
目录编号:
68892
目录名称:
KUIPER-00524
国际标识:
2026-095AE
轨道中心:
EARTH
卫星名称:
KUIPER-00524
卫星全名:
KUIPER-00524
卫星状态:
在轨 (已飞行27 天)
发射日期:
2026-04-28 UTC
国别 :
美国 (US)
星等 :
--
Orbit Information
数据来源 国际轨道数据
星历时间: 2026-05-24T05:26:34+0800
1天前
查看轨道信息
半长轴: 6829.012km
偏心率: 0.0002099
轨道倾角: 51.883°
近地点辐角 176.592°
升交点赤经 359.722°
平近点角 183.509°
近地点: 449.441km
远地点: 452.309km
周期: 93.604分钟
每日圈数: 15.383884
Detailed Information
使用方式:
暂无
2D Orbit Map
3D Orbit Map
Orbit Altitude Analysis Chart
Orbit Inclination Analysis Chart
Orbit Comprehensive Analysis Chart
View Comprehensive Chart